TimeMST,TemperatureF,Dew PointF,Humidity,Sea Level PressureIn,VisibilityMPH,Wind Direction,Wind SpeedMPH,Gust SpeedMPH,PrecipitationIn,Events,Conditions,WindDirDegrees,DateUTC
12:58 AM,44.1,21.2,40,29.79,10.0,East,6.9,-,N/A,,Clear,100,2012-12-09 07:58:00
1:58 AM,41.4,20.1,43,29.80,10.0,East,4.6,-,N/A,,Clear,100,2012-12-09 08:58:00
2:58 AM,41.2,19.4,42,29.80,10.0,SE,8.1,-,N/A,,Clear,130,2012-12-09 09:58:00
3:58 AM,39.7,20.1,45,29.80,10.0,SE,4.6,-,N/A,,Clear,130,2012-12-09 10:58:00
4:58 AM,40.1,20.7,46,29.81,10.0,SSE,8.1,-,N/A,,Clear,150,2012-12-09 11:58:00
5:58 AM,40.6,22.1,48,29.84,10.0,SE,6.9,-,N/A,,Clear,140,2012-12-09 12:58:00
6:58 AM,39.9,20.8,47,29.84,10.0,ESE,6.9,-,N/A,,Clear,110,2012-12-09 13:58:00
7:58 AM,43.5,20.7,40,29.86,10.0,East,4.6,-,N/A,,Clear,100,2012-12-09 14:58:00
8:58 AM,54.1,22.8,30,29.84,10.0,SSE,4.6,-,N/A,,Clear,160,2012-12-09 15:58:00
9:58 AM,56.3,23.0,28,29.84,10.0,Calm,Calm,-,N/A,,Clear,0,2012-12-09 16:58:00
10:58 AM,61.2,22.5,23,29.81,10.0,SSE,5.8,-,N/A,,Clear,160,2012-12-09 17:58:00
11:58 AM,61.5,20.3,20,29.78,10.0,SSE,3.5,-,N/A,,Clear,160,2012-12-09 18:58:00
12:58 PM,64.9,20.7,18,29.74,10.0,WSW,11.5,-,N/A,,Clear,240,2012-12-09 19:58:00
1:58 PM,64.4,19.0,18,29.73,10.0,SW,10.4,-,N/A,,Clear,230,2012-12-09 20:58:00
2:32 PM,64.4,21.2,19,29.83,10.0,SW,13.8,-,N/A,,Clear,230,2012-12-09 21:32:00
2:58 PM,65.1,20.8,18,29.71,10.0,SSW,16.1,20.7,N/A,,Clear,210,2012-12-09 21:58:00
3:58 PM,64.2,18.9,18,29.71,10.0,SW,18.4,23.0,N/A,,Clear,230,2012-12-09 22:58:00
4:58 PM,59.9,17.8,19,29.72,10.0,SW,10.4,-,N/A,,Clear,230,2012-12-09 23:58:00
5:28 PM,57.2,15.8,20,29.82,7.0,WSW,24.2,27.6,N/A,,Clear,250,2012-12-10 00:28:00
5:38 PM,59.0,15.8,19,29.83,5.0,WSW,28.8,34.5,N/A,,Haze,240,2012-12-10 00:38:00
5:53 PM,59.0,15.8,19,29.87,5.0,WNW,32.2,39.1,N/A,,Haze,290,2012-12-10 00:53:00
5:58 PM,59.0,16.0,19,29.80,4.0,NW,23.0,39.1,N/A,,Haze,310,2012-12-10 00:58:00
5:59 PM,57.2,17.6,21,29.89,3.0,NNW,32.2,39.1,N/A,,Haze,330,2012-12-10 00:59:00
6:04 PM,55.4,19.4,25,29.90,2.0,NNW,25.3,39.1,N/A,,Haze,330,2012-12-10 01:04:00
6:09 PM,53.6,19.4,26,29.91,1.8,NNW,28.8,38.0,N/A,,Haze,330,2012-12-10 01:09:00
6:14 PM,51.8,19.4,28,29.92,2.0,NNW,26.5,38.0,N/A,,Haze,330,2012-12-10 01:14:00
6:19 PM,51.8,19.4,28,29.93,3.0,NNW,27.6,38.0,N/A,,Haze,330,2012-12-10 01:19:00
6:24 PM,51.8,19.4,28,29.94,6.0,NNW,25.3,36.8,N/A,,Haze,340,2012-12-10 01:24:00
6:29 PM,50.0,19.4,30,29.95,9.0,NNW,27.6,36.8,N/A,,Scattered Clouds,330,2012-12-10 01:29:00
6:58 PM,48.2,17.6,30,29.92,10.0,NNW,29.9,39.1,N/A,,Clear,340,2012-12-10 01:58:00
7:20 PM,46.4,19.4,34,30.01,10.0,North,29.9,40.3,N/A,,Squalls,350,2012-12-10 02:20:00
7:28 PM,46.4,19.4,34,30.01,9.0,North,33.4,44.9,N/A,,Squalls,350,2012-12-10 02:28:00
7:38 PM,44.6,21.2,39,30.03,10.0,North,28.8,43.7,N/A,,Clear,350,2012-12-10 02:38:00
7:58 PM,43.5,24.3,47,29.99,10.0,North,23.0,39.1,N/A,,Clear,360,2012-12-10 02:58:00
8:58 PM,39.9,26.4,59,30.06,10.0,North,24.2,-,N/A,,Clear,10,2012-12-10 03:58:00
9:58 PM,40.1,19.0,43,30.09,10.0,North,20.7,27.6,N/A,,Scattered Clouds,360,2012-12-10 04:58:00
10:58 PM,36.7,18.0,47,30.09,10.0,North,20.7,-,N/A,,Mostly Cloudy,350,2012-12-10 05:58:00
11:58 PM,34.2,10.4,37,30.12,10.0,North,11.5,-,N/A,,Clear,10,2012-12-10 06:58:00